Location: Chuathbaluk
(61.5726°N, 159.2454°W)
Time: 16:05:35
(UTC+00:00)

Altair - All Passes

Search period start: 24 November 2020 00:00
Search period end: 04 December 2020 00:00
Orbit: 1502 x 1682 km, 47.2° (Epoch: 23 November)

Date Brightness Start Highest point End Pass type
(mag) Time Alt. Az. Time Alt. Az. Time Alt. Az.
24 Nov - 08:37:14 10° SSW 08:43:52 23° SSE 08:50:28 10° ESE night (unlit)
24 Nov - 10:38:35 10° SW 10:46:23 33° S 10:54:11 10° ESE night (unlit)
24 Nov - 12:41:37 10° WSW 12:49:06 29° SSW 12:56:40 10° SE visible
24 Nov - 14:46:11 10° WSW 14:51:19 16° SW 14:56:30 10° S visible
25 Nov - 08:12:25 10° SSW 08:18:54 22° SSE 08:25:20 10° ESE night (unlit)
25 Nov - 10:13:35 10° SW 10:21:22 32° S 10:29:09 10° ESE night (unlit)
25 Nov - 12:16:32 10° WSW 12:24:05 30° SSW 12:31:43 10° SE visible
25 Nov - 14:20:55 10° WSW 14:26:21 17° SW 14:31:51 10° S visible
26 Nov - 07:47:37 10° S 07:53:55 21° SE 08:00:09 10° ESE night (unlit)
26 Nov - 09:48:35 10° SW 09:56:20 32° S 10:04:05 10° ESE night (unlit)
26 Nov - 11:51:27 10° WSW 11:59:04 31° SSW 12:06:44 10° SE visible
26 Nov - 13:55:41 10° WSW 14:01:23 19° SW 14:07:09 10° S visible
27 Nov - 07:22:51 10° S 07:28:56 20° SE 07:34:57 10° ESE visible
27 Nov - 09:23:35 10° SW 09:31:19 31° SSE 09:39:00 10° ESE night (unlit)
27 Nov - 11:26:23 10° WSW 11:34:03 31° SSW 11:41:45 10° SE night (unlit)
27 Nov - 13:30:28 10° WSW 13:36:25 20° SW 13:42:25 10° S visible
28 Nov - 06:58:07 10° S 07:03:58 19° SE 07:09:45 10° ESE visible
28 Nov - 08:58:36 10° SW 09:06:17 31° SSE 09:13:56 10° ESE night (unlit)
28 Nov - 11:01:18 10° WSW 11:09:02 32° S 11:16:46 10° SE night (unlit)
28 Nov - 13:05:16 10° WSW 13:11:26 21° SW 13:17:40 10° S visible
29 Nov - 06:33:24 10° S 06:38:59 18° SE 06:44:31 10° ESE visible
29 Nov - 08:33:38 10° SW 08:41:16 30° SSE 08:48:51 10° ESE visible
29 Nov - 10:36:14 10° WSW 10:44:00 32° S 10:51:46 10° SE night (unlit)
29 Nov - 12:40:05 10° WSW 12:46:28 22° SSW 12:52:52 10° SSE night (unlit)
30 Nov - 06:08:44 10° S 06:14:02 17° SE 06:19:17 10° ESE visible
30 Nov - 08:08:39 10° SW 08:16:15 30° SSE 08:23:46 10° ESE visible
30 Nov - 10:11:10 10° WSW 10:18:59 33° S 10:26:46 10° SE night (unlit)
30 Nov - 12:14:55 10° WSW 12:21:29 23° SSW 12:28:04 10° SSE night (unlit)
01 Dec - 05:44:06 10° S 05:49:04 16° SE 05:53:59 10° ESE visible
01 Dec - 07:43:42 10° SW 07:51:14 29° SSE 07:58:41 10° ESE visible
01 Dec - 09:46:06 10° WSW 09:53:57 33° S 10:01:45 10° SE night (unlit)
01 Dec - 11:49:45 10° WSW 11:56:29 24° SSW 12:03:14 10° SSE night (unlit)
02 Dec - 05:19:32 10° SSE 05:24:07 15° SE 05:28:39 10° ESE visible
02 Dec - 07:18:45 10° SSW 07:26:13 28° SSE 07:33:36 10° ESE visible
02 Dec - 09:21:03 10° WSW 09:28:56 33° S 09:36:46 10° SE visible
02 Dec - 11:24:37 10° WSW 11:31:30 24° SSW 11:38:23 10° SSE night (unlit)
02 Dec - 13:32:31 10° SW 13:33:16 10° SW 13:34:02 10° SW night (unlit)
03 Dec - 04:55:02 10° SSE 04:59:10 14° SE 05:03:15 10° ESE visible
03 Dec - 06:53:49 10° SSW 07:01:13 28° SSE 07:08:30 10° ESE visible
03 Dec - 08:55:59 10° WSW 09:03:54 33° S 09:11:44 10° ESE visible
03 Dec - 10:59:29 10° WSW 11:06:30 25° SSW 11:13:31 10° SSE night (unlit)
03 Dec - 13:06:00 10° WSW 13:08:21 11° SW 13:10:41 10° SW night (unlit)
